Regional Weather Roundup
Issued by NWS Lake Charles, LA

Home | Current Version | Previous Version | Text Only | Print | Product List | Glossary On
Versions: 1 2 3 4 5 6 7 8 9 10 11 12 13 14 15 16 17 18 19 20 21 22 23 24 25 26 27
000
ASUS44 KLCH 271110
RWRLCH
REGIONAL WEATHER ROUNDUP
NATIONAL WEATHER SERVICE LAKE CHARLES LA
600 AM CDT FRI MAY 27 2016

Note: "fair" indicates few or no clouds below 12,000 feet with no
significant weather and/or obstructions to visibility.


ACROSS SOUTHEAST TEXAS

CITY           SKY/WX    TMP DP  RH WIND       PRES   REMARKS
BEAUMONT       CLOUDY    78  75  90 S13       29.81S
BEAUMONT CITY  PTSUNNY   77  75  92 SW5       29.85R
ORANGE         CLOUDY    78  74  88 S9        29.84F
JASPER         LGT RAIN  71  70  96 CALM      29.88R
$$

ACROSS CENTRAL LOUISIANA

CITY           SKY/WX    TMP DP  RH WIND       PRES   REMARKS
LEESVILLE      CLOUDY    73  73 100 SE9       29.86S
FULLERTON      LGT RAIN  75  72  90 SE6       29.84F
ALEXANDRIA INT CLOUDY    75  74  96 S13       29.85S
ESLER FIELD    CLOUDY    77  73  87 S8        29.86F
DERIDDER       CLOUDY    74  73  95 SE7       29.87F
OAKDALE        CLOUDY    76  74  96 SE3       29.87S
OPELOUSAS      FAIR      75  72  89 SE8       29.90R
$$

ACROSS SOUTHWEST AND SOUTH CENTRAL LOUISIANA

CITY           SKY/WX    TMP DP  RH WIND       PRES   REMARKS
SULPHUR        CLOUDY    79  75  88 SE14G21   29.84F
LAKE CHARLES   MOCLDY    77  74  90 S12       29.84F
CHENNAULT INT  MOCLDY    75  73  94 SE12      29.85F
CAMERON PHI    MOSUNNY   79  75  89 S18G26    29.86F
DEQUINCY       FAIR      74  74 100 SE7       29.83F
JENNINGS       FAIR      75  73  94 SE9       29.86F
LAFAYETTE      MOCLDY    77  71  82 VRB6      29.90R
NEW IBERIA     CLOUDY    76  70  82 SE8       29.91S
ABBEVILLE      FAIR      76  72  86 SE8       29.90S
PATTERSON      CLOUDY    75  72  90 SE5       29.92F
SALT POINT       N/A     77  73  87 VRB5      29.90S
$$

SELECTED SITES ACROSS THE REGION

CITY           SKY/WX    TMP DP  RH WIND       PRES   REMARKS
HOUSTON BUSH   TSTM      65  65 100 SE13      29.79F
HOUSTON HOBBY  LGT RAIN  72  68  87 N17G24    29.81R
GALVESTON      CLOUDY    79  77  94 SE13      29.82R
COLLEGE STAT   CLOUDY    67  66  97 SE10      29.77F
CONROE         CLOUDY    65  65 100 SE6         N/A
HUNTSVILLE     CLOUDY    67  63  87 VRB6      29.79R THUNDER
LUFKIN         TSTM      67  67 100 NE12      29.83F
SHREVEPORT     CLOUDY    71  67  87 S7        29.83F
MONROE         CLOUDY    76  73  91 VRB6      29.88S
NATCHEZ MS     CLOUDY    73  70  88 SE17      29.90F
BATON ROUGE    MOCLDY    76  71  85 E7        29.93R
N.O. INTL ARPT CLOUDY    77  72  84 SE8       29.94S
SLIDELL        CLOUDY    77  73  87 SE7       29.95S
$$

MARINE REPORTS

STATION/POSITION TIME  SKY/WX   TEMP    WIND        PRES    VSBY
                                AIR SEA DIR/SP/G
                 (UTC)          (F)     (DEG/KT/KT) (MB)    (MI)
BUOY 30 S HIGH I 1050            80 80  150/ 17/ 21 1008.1F
WVE H/P(F/S)=  5/ 7

SEA RIM ST PARK  1100            79     150/ 19/ 22 1009.9F
PORT ARTHUR      1000               79  150/  9/ 14 1010.3F
SABINE PASS N    1000            80 80  160/ 13/ 19 1011.6S
TEXAS POINT      NOT AVBL
CALCASIEU PASS   1000            79 81  170/ 14/ 18 1010.1R
LK CHARLES BEACH 1000            77 80              1011.4R
MARSH ISLAND     1000            81                   N/A
FRESH WATER LOCK 1000            79 82  140/ 15/ 19 1012.5F
AMERADA PASS     1000            78 75  130/  7/ 11 1012.9F
$$




USA.gov is the U.S. government's official web portal to all federal, state and local government web resources and services.